Ely, MN

8:06 AM CST on February 25, 2018 (GMT -0600)
Ely Municipal

Weather History for KELO - May, 2014

Change the Weather History Date:

Friday, May 16, 2014

  Actual Average Record
Temperature  
Mean Temperature 38 °F -  
Max Temperature 50 °F 59 °F 73 °F (2001)
Min Temperature 26 °F 35 °F 26 °F (2014)
Degree Days  
Heating Degree Days 27    
Moisture  
Dew Point 22 °F    
Average Humidity 56    
Maximum Humidity 93    
Minimum Humidity 26    
Precipitation  
Precipitation 0.00 in - - ()
Sea Level Pressure  
Sea Level Pressure 30.01 in    
Wind  
Wind Speed 2 mph (NNW)    
Max Wind Speed 12 mph    
Max Gust Speed 20 mph    
Visibility 10 miles    
Events      
Averages and records for this station are not official NWS values.
T = Trace of Precipitation, MM = Missing Value Source: NWS Daily Summary

Daily Weather History Graph

Daily Weather History Graph

Search for Another Location

Airport or City:

Trip Planner

Search our weather history database for the weather conditions in past years. The results will help you decide how hot, cold, wet, or windy it might be!

Date:

Astronomy

May. 16, 2014 Rise Set
Actual Time 5:27 AM CDT 8:40 PM CDT
Civil Twilight 4:50 AM CDT 9:17 PM CDT
Nautical Twilight 4:02 AM CDT 10:06 PM CDT
Astronomical Twilight 3:02 AM CDT 11:07 PM CDT
Moon 10:47 PM CDT (5/16) 7:10 AM CDT (5/16)
Length of Visible Light 16h 26m
Length of Day
15h 12m
Waning Gibbous, 95% of the Moon is Illuminated
May 16
Waning Gibbous
May 21
Last Quarter
May 28
New
Jun 5
First Quarter
Jun 12
Full

Hourly Weather History & Observations

Time (CDT) Temp. Windchill Dew Point Humidity Pressure Visibility Wind Dir Wind Speed Gust Speed Precip Events Conditions
12:13 AM 33.8 °F - 28.4 °F 81% 30.07 in 10.0 mi Calm Calm - N/A   Overcast
12:32 AM 33.8 °F - 26.6 °F 75% 30.07 in 10.0 mi Calm Calm - N/A   Overcast
12:53 AM 30.2 °F - 26.6 °F 86% 30.06 in 10.0 mi Calm Calm - N/A   Mostly Cloudy
1:13 AM 32.0 °F - 28.4 °F 87% 30.06 in 10.0 mi Calm Calm - N/A   Overcast
1:32 AM 32.0 °F - 28.4 °F 87% 30.06 in 10.0 mi Calm Calm - N/A   Overcast
1:53 AM 33.8 °F - 26.6 °F 75% 30.05 in 10.0 mi Calm Calm - N/A   Mostly Cloudy
2:12 AM 30.2 °F - 28.4 °F 93% 30.05 in 10.0 mi Calm Calm - N/A   Overcast
2:33 AM 30.2 °F - 28.4 °F 93% 30.05 in 10.0 mi Calm Calm - N/A   Mostly Cloudy
2:53 AM 30.2 °F - 28.4 °F 93% 30.05 in 10.0 mi Calm Calm - N/A   Scattered Clouds
3:12 AM 30.2 °F - 26.6 °F 86% 30.04 in 10.0 mi Calm Calm - N/A   Clear
3:33 AM 28.4 °F - 26.6 °F 93% 30.05 in 10.0 mi Calm Calm - N/A   Clear
3:53 AM 28.4 °F - 24.8 °F 86% 30.04 in 10.0 mi Calm Calm - N/A   Clear
4:12 AM 28.4 °F - 24.8 °F 86% 30.04 in 10.0 mi Calm Calm - N/A   Clear
4:33 AM 26.6 °F - 24.8 °F 93% 30.04 in 10.0 mi Calm Calm - N/A   Clear
4:53 AM 26.6 °F - 24.8 °F 93% 30.04 in 10.0 mi Calm Calm - N/A   Clear
5:13 AM 26.6 °F - 24.8 °F 93% 30.04 in 10.0 mi Calm Calm - N/A   Mostly Cloudy
5:33 AM 26.6 °F - 24.8 °F 93% 30.04 in 10.0 mi Calm Calm - N/A   Mostly Cloudy
5:53 AM 26.6 °F - 24.8 °F 93% 30.04 in 10.0 mi Calm Calm - N/A   Mostly Cloudy
6:13 AM 28.4 °F - 26.6 °F 93% 30.04 in 10.0 mi Calm Calm - N/A   Overcast
6:33 AM 28.4 °F - 26.6 °F 93% 30.04 in 10.0 mi Calm Calm - N/A   Overcast
6:53 AM 30.2 °F - 26.6 °F 86% 30.04 in 10.0 mi Calm Calm - N/A   Overcast
7:12 AM 33.8 °F - 28.4 °F 81% 30.04 in 10.0 mi Calm Calm - N/A   Overcast
7:33 AM 35.6 °F - 26.6 °F 70% 30.04 in 10.0 mi Calm Calm - N/A   Overcast
7:53 AM 35.6 °F 32.8 °F 26.6 °F 70% 30.04 in 10.0 mi NW 3.5 mph - N/A   Overcast
8:12 AM 37.4 °F 34.9 °F 24.8 °F 60% 30.04 in 10.0 mi NW 3.5 mph - N/A   Overcast
8:33 AM 37.4 °F 32.1 °F 24.8 °F 60% 30.04 in 10.0 mi NW 6.9 mph - N/A   Overcast
8:52 AM 39.2 °F 37.0 °F 24.8 °F 56% 30.04 in 10.0 mi North 3.5 mph - N/A   Overcast
9:13 AM 42.8 °F 38.6 °F 23.0 °F 46% 30.03 in 10.0 mi NW 6.9 mph - N/A   Overcast
9:33 AM 42.8 °F 37.5 °F 19.4 °F 39% 30.02 in 10.0 mi North 9.2 mph 16.1 mph N/A   Overcast
9:52 AM 42.8 °F 37.5 °F 19.4 °F 39% 30.02 in 10.0 mi NW 9.2 mph - N/A   Mostly Cloudy
10:13 AM 42.8 °F 37.5 °F 17.6 °F 36% 30.02 in 10.0 mi NNW 9.2 mph - N/A   Mostly Cloudy
10:33 AM 42.8 °F 37.5 °F 19.4 °F 39% 30.02 in 10.0 mi NW 9.2 mph - N/A   Overcast
10:52 AM 42.8 °F 37.5 °F 17.6 °F 36% 30.02 in 10.0 mi WNW 9.2 mph - N/A   Overcast
11:13 AM 42.8 °F 38.6 °F 17.6 °F 36% 30.02 in 10.0 mi North 6.9 mph - N/A   Mostly Cloudy
11:33 AM 44.6 °F 40.7 °F 17.6 °F 34% 30.01 in 10.0 mi NW 6.9 mph - N/A   Scattered Clouds
11:52 AM 44.6 °F 39.7 °F 15.8 °F 31% 30.01 in 10.0 mi NNW 9.2 mph - N/A   Mostly Cloudy
12:13 PM 44.6 °F 41.4 °F 17.6 °F 34% 30.01 in 10.0 mi NNE 5.8 mph - N/A   Mostly Cloudy
12:31 PM 44.6 °F - 15.8 °F 31% 30.00 in 10.0 mi Calm Calm - N/A   Scattered Clouds
12:51 PM 44.6 °F 39.2 °F 17.6 °F 34% 30.00 in 10.0 mi NW 10.4 mph - N/A   Scattered Clouds
1:13 PM 46.4 °F 45.2 °F 15.8 °F 29% 30.00 in 10.0 mi NNE 3.5 mph - N/A   Scattered Clouds
1:32 PM 46.4 °F - 15.8 °F 29% 29.99 in 10.0 mi Calm Calm - N/A   Mostly Cloudy
1:53 PM 48.2 °F - 17.6 °F 30% 29.99 in 10.0 mi NW 4.6 mph - N/A   Mostly Cloudy
2:13 PM 48.2 °F - 15.8 °F 27% 29.98 in 10.0 mi North 3.5 mph 16.1 mph N/A   Scattered Clouds
2:32 PM 48.2 °F - 15.8 °F 27% 29.98 in 10.0 mi NNE 4.6 mph - N/A   Scattered Clouds
2:53 PM 48.2 °F - 15.8 °F 27% 29.98 in 10.0 mi Calm Calm - N/A   Scattered Clouds
3:13 PM 48.2 °F - 15.8 °F 27% 29.98 in 10.0 mi North 4.6 mph - N/A   Mostly Cloudy
3:33 PM 48.2 °F - 17.6 °F 30% 29.98 in 10.0 mi NW 10.4 mph - N/A   Mostly Cloudy
3:53 PM 48.2 °F - 17.6 °F 30% 29.97 in 10.0 mi North 5.8 mph - N/A   Overcast
4:12 PM 48.2 °F - 17.6 °F 30% 29.98 in 10.0 mi NW 10.4 mph - N/A   Mostly Cloudy
4:33 PM 50.0 °F - 17.6 °F 28% 29.98 in 10.0 mi NW 11.5 mph 19.6 mph N/A   Mostly Cloudy
4:53 PM 48.2 °F - 17.6 °F 30% 29.98 in 10.0 mi NNW 6.9 mph - N/A   Scattered Clouds
5:12 PM 50.0 °F - 17.6 °F 28% 29.97 in 10.0 mi North 4.6 mph - N/A   Scattered Clouds
5:33 PM 50.0 °F - 15.8 °F 26% 29.97 in 10.0 mi Calm Calm - N/A   Mostly Cloudy
5:53 PM 50.0 °F - 17.6 °F 28% 29.97 in 10.0 mi NNW 9.2 mph 16.1 mph N/A   Mostly Cloudy
6:12 PM 50.0 °F - 17.6 °F 28% 29.97 in 10.0 mi NNW 6.9 mph 16.1 mph N/A   Mostly Cloudy
6:33 PM 48.2 °F - 17.6 °F 30% 29.97 in 10.0 mi NNW 10.4 mph 17.3 mph N/A   Mostly Cloudy
6:53 PM 48.2 °F - 17.6 °F 30% 29.97 in 10.0 mi NNW 5.8 mph - N/A   Mostly Cloudy
7:12 PM 48.2 °F - 17.6 °F 30% 29.97 in 10.0 mi NW 4.6 mph - N/A   Scattered Clouds
7:33 PM 48.2 °F - 17.6 °F 30% 29.98 in 10.0 mi WNW 5.8 mph - N/A   Scattered Clouds
7:53 PM 48.2 °F - 17.6 °F 30% 29.97 in 10.0 mi NW 3.5 mph - N/A   Scattered Clouds
8:12 PM 46.4 °F - 19.4 °F 34% 29.98 in 10.0 mi Calm Calm - N/A   Scattered Clouds
8:33 PM 44.6 °F - 19.4 °F 37% 29.97 in 10.0 mi Calm Calm - N/A   Clear
8:52 PM 42.8 °F - 23.0 °F 46% 29.97 in 10.0 mi Calm Calm - N/A   Clear
9:13 PM 41.0 °F - 24.8 °F 53% 29.98 in 10.0 mi Calm Calm - N/A   Clear
9:33 PM 39.2 °F - 24.8 °F 56% 29.98 in 10.0 mi Calm Calm - N/A   Mostly Cloudy
9:53 PM 37.4 °F - 26.6 °F 65% 29.98 in 10.0 mi Calm Calm - N/A   Overcast
10:13 PM 35.6 °F - 26.6 °F 70% 29.98 in 10.0 mi Calm Calm - N/A   Scattered Clouds
10:33 PM 33.8 °F - 26.6 °F 75% 29.98 in 10.0 mi Calm Calm - N/A   Clear
10:53 PM 33.8 °F - 26.6 °F 75% 29.97 in 10.0 mi Calm Calm - N/A   Clear
11:13 PM 33.8 °F - 26.6 °F 75% 29.97 in 10.0 mi Calm Calm - N/A   Clear
11:33 PM 32.0 °F - 26.6 °F 80% 29.97 in 10.0 mi Calm Calm - N/A   Clear
11:53 PM 32.0 °F - 26.6 °F 80% 29.97 in 10.0 mi Calm Calm - N/A   Clear